Location: Caltech
(34.1382°N, 118.1253°W)
Time: 05:03:29
(UTC-07:00)

PCSat - Visible Passes

Search period start: 28 March 2017 00:00
Search period end: 07 April 2017 00:00
Orbit: 785 x 795 km, 67.1° (Epoch: 26 March)

Date Brightness Start Highest point End Pass type
(mag) Time Alt. Az. Time Alt. Az. Time Alt. Az.
28 Mar 12.4 20:32:56 10° WNW 20:35:39 14° WSW 20:38:21 10° SW visible
29 Mar 12.2 20:01:02 10° WNW 20:04:57 21° WSW 20:08:52 10° SSW visible
30 Mar 11.7 19:29:36 10° NW 19:34:14 29° WSW 19:38:51 10° SSW visible
